JCSAT-13

Last updated on Sun Dec 07 2025 00:02:47 GMT+0000 (Coordinated Universal Time)

1 38331U 12023A 25340.59558641 -.00000350 00000+0 00000+0 0 9990 2 38331 0.0175 2.8081 0002701 252.8408 158.3960 1.00269197 49607
UTC large
Height (km)
Speed (km/s)
/
Latitude / Longitude
Inclination (degrees)
Orbital Period (minutes)
Azimuth
Elevation
Range (km)
Doppler Factor

Next 0 passes for location: London (51.5072 / 0.1276)

Sorry there are no passes over London.